This demonstration page uses our WeatherBlox Daily Observations layout. Learn more.

Left ArrowRight Arrow

Hourly Observations for January 1, 2017

Temp ( °F °C ) Dew Point ( °F °C ) Humidity (%) Winds ( mph kmh ) Pressure ( in mb ) Visibility ( mi km ) Precip ( " mm )
12:53 am 00:53 Clear 26 -3.3 15 -9.4 63 63 SSW 9 15 29.94 1014 10 16 0.00 0.00
1:53 am 01:53 Clear 24 -4.4 15 -9.4 68 68 S 6 9 29.93 1014 10 16 0.00 0.00
2:53 am 02:53 Clear 24 -4.4 15 -9.4 68 68 S 6 9 29.93 1014 10 16 0.00 0.00
3:53 am 03:53 Clear 23 -5 15 -9.4 72 72 SSW 6 9 29.94 1014 10 16 0.00 0.00
4:53 am 04:53 Clear 24 -4.4 15 -9.4 68 68 S 7 11 29.92 1013 10 16 0.00 0.00
5:53 am 05:53 Clear 25 -3.9 16 -8.9 69 69 SSE 6 9 29.92 1013 10 16 0.00 0.00
6:53 am 06:53 Mostly Clear 28 -2.2 19 -7.2 69 69 S 6 9 29.94 1014 10 16 0.00 0.00
7:53 am 07:53 Cloudy 28 -2.2 19 -7.2 69 69 S 6 9 29.95 1014 10 16 0.00 0.00
8:53 am 08:53 Mostly Cloudy 29 -1.7 20 -6.7 69 69 S 7 11 29.95 1014 10 16 0.00 0.00
9:53 am 09:53 Partly Cloudy 32 0 21 -6 64 64 S 6 9 30.00 1016 10 16 0.00 0.00
10:53 am 10:53 Mostly Sunny 34 1.1 21 -6.1 59 59 S 13 20 29.96 1014 10 16 0.00 0.00
11:53 am 11:53 Partly Cloudy 37 2.8 21 -6.1 52 52 S 10 17 29.93 1014 10 16 0.00 0.00
12:53 pm 12:53 Cloudy 36 2.2 21 -6.1 55 55 SSE 14 22 29.89 1012 10 16 0.00 0.00
1:53 pm 13:53 Cloudy 37 2.8 22 -5.6 54 54 SSE 10 17 29.86 1011 10 16 0.00 0.00
2:53 pm 14:53 Cloudy 36 2.2 23 -5 59 59 SE 10 17 29.84 1011 10 16 0.00 0.00
3:53 pm 15:53 Cloudy 36 2.2 23 -5 59 59 ESE 12 19 29.82 1010 10 16 0.00 0.00
4:53 pm 16:53 Cloudy 35 1.7 22 -5.6 59 59 ESE 14 22 29.82 1010 10 16 0.00 0.00
5:53 pm 17:53 Cloudy 35 1.7 21 -6.1 57 57 ESE 12 19 29.83 1010 10 16 0.00 0.00
6:53 pm 18:53 Cloudy 35 1.7 20 -6.7 54 54 ESE 12 19 29.82 1010 10 16 0.00 0.00
7:53 pm 19:53 Cloudy 35 1.7 21 -6.1 57 57 E 9 15 29.84 1010 10 16 0.00 0.00
8:53 pm 20:53 Cloudy 35 1.7 22 -5.6 59 59 ENE 5 7 29.85 1011 10 16 0.00 0.00
9:53 pm 21:53 Cloudy 34 1.1 23 -5 64 64 E 8 13 29.83 1010 10 16 0.00 0.00
10:53 pm 22:53 Mostly Cloudy 34 1.1 24 -4.4 67 67 E 10 17 29.83 1010 10 16 0.00 0.00
11:53 pm 23:53 Cloudy 35 1.7 25 -3.9 67 67 ESE 9 15 29.83 1010 10 16 0.00 0.00

Powered by AerisWeather